Content
SEND FEEDBACK

Daily
Averages
Monthly
Summary
United States of America

NAPERVILLE, ILLINOIS


Home > North America > United States > Illinois
Elevation: 687 feet     Latitude: 41 49N     Longitude: 088 04W

WEATHER
 
SELECT A DAY
Number of Records: 199,619;   Date Range: 1/1/95 - 10/20/14
 
SHARE

PRINT THIS DATA

[ ← Previous Day ]
WEATHER ALMANAC - FEBRUARY 16, 2013
[ Next Day → ]
[ °C ]   °F
Weather ElementAverageHighLow
Temperature16.1 °F19.9 °F (2:51 pm)12.9 °F (5:51 am)
Dewpoint3.2 °F6.1 °F (1:51 am) (7:00 pm)
Humidity57.2 %67 % (5:51 am)47 % (5:51 pm)
Barometer30.17 in30.21 in (9:51 pm)30.13 in (2:51 pm)
Wind Speed10.5 mph15 mph (11:51 am)
Wind Gust21.9 mph (11:51 am)
Weather ElementAverage
Visibility10 mi
Wind DirectionNW (313.5 °)

Weather ElementTotal
Precipitation---
Heating Degree Days48.6 (Base 65)
Averaged from 23 records on February 16, 2013
WEATHER CONDITIONS BREAKOUT
WIND DIRECTION BREAKOUT
WEATHER BY HOUR - FEBRUARY 16, 2013
[ °C ]   °F
Local TimeTemperatureDewpointHumidityBarometerVisibilityWind DirectionWind SpeedGust SpeedPrecipitationEventsConditions
1:51 AM17.1 °F6.1 °F62 %30.17 in10.0 miNW (320°)11.5 mphClear
2:51 AM16.0 °F6.1 °F65 %30.16 in10.0 miNW (310°)11.5 mphClear
3:51 AM15.1 °F3.9 °F61 %30.15 in10.0 miNW (320°)11.5 mphClear
4:51 AM14.0 °F3.9 °F64 %30.16 in10.0 miNW (310°)13.8 mphClear
5:51 AM12.9 °F3.9 °F67 %30.17 in10.0 miNNW (330°)12.7 mphClear
6:51 AM12.9 °F3.9 °F67 %30.17 in10.0 miNW (310°)8.1 mphPartly Cloudy
7:51 AM14.0 °F5.0 °F67 %30.18 in10.0 miNW (310°)10.4 mphPartly Cloudy
8:51 AM16.0 °F5.0 °F62 %30.18 in10.0 miWNW (300°)8.1 mphPartly Cloudy
9:51 AM18.0 °F3.9 °F54 %30.18 in10.0 miWNW (290°)10.4 mphMostly Cloudy
10:51 AM19.0 °F3.9 °F52 %30.17 in10.0 miWNW (290°)11.5 mphMostly Cloudy
11:51 AM19.0 °F3.0 °F50 %30.16 in10.0 miWest (280°)15.0 mph21.9 mphOvercast
12:51 PM19.0 °F5.0 °F54 %30.14 in10.0 miWNW (290°)15.0 mph0.00 inMostly Cloudy
1:51 PM19.0 °F3.9 °F52 %30.14 in10.0 miWNW (300°)11.5 mph18.4 mph0.00 inMostly Cloudy
2:51 PM19.9 °F3.0 °F48 %30.13 in10.0 miWNW (300°)12.7 mph18.4 mph0.00 inMostly Cloudy
3:51 PM18.0 °F3.0 °F52 %30.15 in10.0 miNNW (330°)10.4 mph0.00 inSnowLight Snow
4:51 PM18.0 °F1.9 °F50 %30.16 in10.0 miNW (320°)11.5 mph19.6 mph0.00 inMostly Cloudy
5:51 PM17.1 °F0.0 °F47 %30.17 in10.0 miNNW (330°)10.4 mphScattered Clouds
6:51 PM16.0 °F0.0 °F49 %30.19 in10.0 miNNW (340°)10.4 mphScattered Clouds
7:51 PM15.1 °F1.0 °F54 %30.20 in10.0 miNorth (350°)10.4 mphScattered Clouds
8:51 PM14.0 °F1.0 °F56 %30.20 in10.0 miNNW (340°)9.2 mphPartly Cloudy
9:51 PM14.0 °F1.9 °F59 %30.21 in10.0 miNW (320°)4.6 mphClear
10:51 PM12.9 °F1.9 °F62 %30.20 in10.0 miNW (310°)5.8 mphClear
11:51 PM12.9 °F1.9 °F62 %30.20 in10.0 miNW (310°)4.6 mphClear
Hourly data recorded from KORD, located miles away from Naperville, Illinois







STORIES FROM OUR PARTNERS